Location: George Washington National Forest Helicopter Landing Site
(38.6463°N, 79.0851°W)
Time: 15:34:24
(UTC-04:00)

Tiros 1 despin weight - Pass Details

Date: 22 August 2019
Orbit: 594 x 642 km, 48.2° (Epoch: 22 September)

Event Time Altitude Azimuth Distance (km) Brightness Sun altitude
Rises 23:40:54 0° 220° (SW) 2,814 - -34.8°
Reaches altitude 10° 23:43:13 10° 214° (SW) 1,919 - -35.0°
Maximum altitude 23:47:27 48° 141° (SE) 786 - -35.4°
Drops below altitude 10° 23:51:44 10° 67° (ENE) 1,947 - -35.8°
Sets 23:54:06 0° 61° (ENE) 2,861 - -36.0°
